Hourly Data Report for September 16, 2017

All times are specified in Local Standard Time (LST). Add 1 hour to adjust for Daylight Saving Time where and when it is observed.

SUMMERSIDE
PRINCE EDWARD ISLAND

46°26'28.000" N
63°50'17.000" W
12.20 m
8300596
71702
WSD

Download Data

Hourly Data (September 2017)
Hourly Data Report for September 16, 2017
Temp Definition
°C
Dew Point Temp Definition
°C
Rel Hum Definition
%
Wind Dir Definition
10's deg

Wind Spd Definition
km/h
Visibility Definition
km
Stn Press Definition
kPa
Hmdx Definition


Wind Chill Definition


Weather Definition


TIME
00:00 13.6 10.9 84 17 13   101.82     LegendNANA
01:00 13.4 11.5 89 19 7   101.80     LegendNANA
02:00 13.6 12.6 94 20 9   101.78     LegendNANA
03:00 15.4 14.1 92 21 13   101.75     LegendNANA
04:00 14.8 13.7 93 23 10   101.78     LegendNANA
05:00 14.0 13.1 95 22 9   101.78     LegendNANA
06:00 15.7 15.0 96 23 21   101.73     LegendNANA
07:00 15.8 15.3 97 23 21   101.79     LegendNANA
08:00 16.5 15.9 96 23 17   101.79     LegendNANA
09:00 17.3 16.2 94 24 19   101.79     LegendNANA
10:00 18.3 16.6 90 23 18   101.77     LegendNANA
11:00 19.6 17.1 86 24 18   101.71     LegendNANA
12:00 21.6 17.5 78 23 21   101.68 27   LegendNANA
13:00 23.4 17.8 71 24 20   101.68 29   LegendNANA
14:00 24.6 17.3 64 29 12   101.66 30   LegendNANA
15:00 18.4 15.4 83 2 30   101.76     LegendNANA
16:00 16.6 13.3 81 4 31   101.86     LegendNANA
17:00 15.4 12.6 83 4 31   101.85     LegendNANA
18:00 15.0 11.6 80 4 28   101.90     LegendNANA
19:00 14.8 12.2 84 4 24   101.94     LegendNANA
20:00 14.7 11.4 81 4 24   102.02     LegendNANA
21:00 14.5 11.8 84 5 19   102.05     LegendNANA
22:00 14.6 11.5 82 6 17   102.06     LegendNANA
23:00 14.4 11.7 84 5 15   102.08     LegendNANA

Notes on Data Quality.

Legend

  • E = Estimated
  • M = Missing
  • NA = Not Available
  • ‡ = Partner data that is not subject to review by the National Climate Archives
Date modified: